CCA5446 ZBTJ-ZSAM

Flight info

Callsign CCA5446
Flight time N/A
Altitude 31100
Route ZBTJ ELKUR W40 PANKI W158 AR H104 ATVIM W127 HFE H2 QO ZSAM
Aircraft A321/M-SDE3FGHIRWY/LB1

Departure

Time 2026-04-16 04:29
Airport Tianjin Binhai International Airport (ZBTJ)

Arrival

Time N/A
Airport Xiamen Gaoqi International Airport (ZSAM)
Time Latitude Longitude Altitude Speed Heading
2026-04-16 04:06 39.12747 117.35664 19 ft 0 kts 64°
2026-04-16 04:16 39.12746 117.35664 19 ft 1 kts 64°
2026-04-16 04:16 39.12741 117.35648 20 ft 3 kts 65°
2026-04-16 04:16 39.12733 117.35626 21 ft 2 kts 66°
2026-04-16 04:16 39.12728 117.35605 20 ft 3 kts 105°
2026-04-16 04:17 39.12737 117.35586 19 ft 3 kts 142°
2026-04-16 04:17 39.12754 117.35572 19 ft 3 kts 153°
2026-04-16 04:17 39.12763 117.35566 22 ft 0 kts 154°
2026-04-16 04:21 39.12762 117.35567 19 ft 1 kts 146°
2026-04-16 04:21 39.12748 117.35576 21 ft 4 kts 154°
2026-04-16 04:22 39.12706 117.35602 19 ft 9 kts 154°
2026-04-16 04:22 39.12635 117.35639 19 ft 13 kts 166°
2026-04-16 04:22 39.12543 117.35638 19 ft 14 kts 182°
2026-04-16 04:22 39.12437 117.35631 20 ft 16 kts 185°
2026-04-16 04:23 39.12362 117.35564 19 ft 14 kts 247°
2026-04-16 04:23 39.12320 117.35450 19 ft 15 kts 243°
2026-04-16 04:23 39.12270 117.35315 19 ft 18 kts 245°
2026-04-16 04:23 39.12213 117.35161 19 ft 20 kts 245°
2026-04-16 04:24 39.12208 117.35016 21 ft 17 kts 317°
2026-04-16 04:24 39.12322 117.34942 19 ft 20 kts 334°
2026-04-16 04:24 39.12454 117.34861 19 ft 22 kts 334°
2026-04-16 04:24 39.12602 117.34771 19 ft 24 kts 334°
2026-04-16 04:25 39.12762 117.34673 20 ft 27 kts 334°
2026-04-16 04:25 39.12929 117.34570 19 ft 22 kts 335°
2026-04-16 04:25 39.13076 117.34480 21 ft 25 kts 334°
2026-04-16 04:25 39.13238 117.34382 21 ft 27 kts 336°
2026-04-16 04:26 39.13408 117.34278 21 ft 24 kts 334°
2026-04-16 04:26 39.13545 117.34193 19 ft 23 kts 334°
2026-04-16 04:26 39.13677 117.34112 20 ft 19 kts 335°
2026-04-16 04:26 39.13802 117.34035 20 ft 21 kts 334°
2026-04-16 04:27 39.13939 117.33950 20 ft 22 kts 334°
2026-04-16 04:27 39.14072 117.33869 19 ft 17 kts 334°
2026-04-16 04:27 39.14111 117.33792 19 ft 7 kts 263°
2026-04-16 04:27 39.14091 117.33733 19 ft 7 kts 243°
2026-04-16 04:28 39.14079 117.33703 19 ft 3 kts 243°
2026-04-16 04:28 39.14063 117.33668 19 ft 6 kts 234°
2026-04-16 04:28 39.14020 117.33647 19 ft 8 kts 175°
2026-04-16 04:28 39.13971 117.33674 19 ft 7 kts 154°
2026-04-16 04:29 39.13859 117.33743 20 ft 51 kts 155°
2026-04-16 04:29 39.13254 117.34113 18 ft 139 kts 154°
2026-04-16 04:29 39.12190 117.34771 243 ft 186 kts 156°
2026-04-16 04:29 39.11031 117.35512 1168 ft 185 kts 157°
2026-04-16 04:30 39.09874 117.36227 2178 ft 184 kts 160°
2026-04-16 04:30 39.08657 117.36965 2859 ft 205 kts 160°
2026-04-16 04:30 39.07310 117.37777 3239 ft 224 kts 159°
2026-04-16 04:30 39.05839 117.38670 3784 ft 241 kts 158°
2026-04-16 04:31 39.04344 117.39591 4941 ft 236 kts 157°
2026-04-16 04:31 39.02865 117.40509 6027 ft 236 kts 157°
2026-04-16 04:31 39.01386 117.41425 7058 ft 237 kts 157°
2026-04-16 04:31 38.99893 117.42348 8038 ft 239 kts 157°
2026-04-16 04:32 38.98474 117.43497 8998 ft 246 kts 141°
2026-04-16 04:32 38.97446 117.45297 9942 ft 257 kts 119°
2026-04-16 04:32 38.97027 117.47574 10807 ft 271 kts 96°
2026-04-16 04:32 38.97244 117.50023 11678 ft 279 kts 85°
2026-04-16 04:33 38.97560 117.52507 12443 ft 285 kts 86°
2026-04-16 04:33 38.97877 117.55034 12699 ft 286 kts 86°
2026-04-16 04:33 38.98190 117.57556 12771 ft 286 kts 86°
2026-04-16 04:33 38.98500 117.60077 12778 ft 286 kts 86°
2026-04-16 04:34 38.98807 117.62605 12783 ft 286 kts 86°
2026-04-16 04:34 38.99032 117.65138 12772 ft 282 kts 97°
2026-04-16 04:34 38.98633 117.67544 12785 ft 272 kts 119°
2026-04-16 04:34 38.97620 117.69496 12780 ft 264 kts 139°
2026-04-16 04:35 38.96149 117.70832 12784 ft 258 kts 159°
2026-04-16 04:35 38.94433 117.71406 12883 ft 257 kts 175°
2026-04-16 04:35 38.92650 117.71675 13770 ft 258 kts 174°
2026-04-16 04:35 38.90858 117.71955 14574 ft 261 kts 178°
2026-04-16 04:36 38.89066 117.71618 15252 ft 265 kts 203°
2026-04-16 04:36 38.87559 117.70246 15856 ft 276 kts 228°
2026-04-16 04:36 38.86676 117.67967 16090 ft 303 kts 256°
2026-04-16 04:36 38.86335 117.65179 16252 ft 327 kts 259°
2026-04-16 04:37 38.86002 117.62181 16388 ft 350 kts 260°
2026-04-16 04:37 38.85930 117.58967 16551 ft 373 kts 274°
2026-04-16 04:37 38.86602 117.55698 17050 ft 385 kts 287°
2026-04-16 04:37 38.87538 117.52470 17728 ft 387 kts 287°
2026-04-16 04:38 38.88462 117.49230 18428 ft 388 kts 287°
2026-04-16 04:38 38.89384 117.45966 19013 ft 390 kts 287°
2026-04-16 04:38 38.90315 117.42671 19548 ft 393 kts 287°
2026-04-16 04:38 38.91065 117.39297 20071 ft 394 kts 278°
2026-04-16 04:39 38.91267 117.35793 20610 ft 394 kts 266°
2026-04-16 04:39 38.90900 117.32313 21130 ft 395 kts 255°
2026-04-16 04:39 38.89988 117.28989 21689 ft 397 kts 244°
2026-04-16 04:39 38.88709 117.25823 22236 ft 400 kts 242°
2026-04-16 04:40 38.87413 117.22662 22763 ft 403 kts 242°
2026-04-16 04:40 38.86107 117.19470 23313 ft 405 kts 242°
2026-04-16 04:40 38.84795 117.16266 23811 ft 407 kts 242°
2026-04-16 04:40 38.83471 117.13039 24249 ft 410 kts 242°
2026-04-16 04:41 38.82139 117.09802 24699 ft 412 kts 242°
2026-04-16 04:41 38.80798 117.06548 25159 ft 413 kts 242°
2026-04-16 04:41 38.79448 117.03274 25611 ft 415 kts 242°
2026-04-16 04:41 38.78100 116.99997 26073 ft 417 kts 242°
2026-04-16 04:42 38.76746 116.96706 26531 ft 419 kts 242°
2026-04-16 04:42 38.75383 116.93398 26955 ft 420 kts 242°
2026-04-16 04:42 38.74008 116.90091 27363 ft 421 kts 241°
2026-04-16 04:42 38.72633 116.86827 27807 ft 422 kts 241°
2026-04-16 04:43 38.71228 116.83521 28164 ft 424 kts 240°
2026-04-16 04:43 38.69812 116.80207 28608 ft 423 kts 240°
2026-04-16 04:43 38.68401 116.76908 29132 ft 421 kts 240°
2026-04-16 04:43 38.66977 116.73653 29654 ft 419 kts 237°
2026-04-16 04:44 38.65178 116.70737 30142 ft 417 kts 226°
2026-04-16 04:44 38.62940 116.68386 30595 ft 417 kts 215°
2026-04-16 04:44 38.60358 116.66693 30963 ft 419 kts 205°
2026-04-16 04:44 38.57527 116.65740 31050 ft 423 kts 193°
2026-04-16 04:45 38.51682 116.65080 31072 ft 420 kts 191°
2026-04-16 04:45 38.45872 116.64428 31072 ft 418 kts 191°
2026-04-16 04:46 38.40073 116.63753 31072 ft 418 kts 191°
2026-04-16 04:46 38.34267 116.63088 31072 ft 419 kts 192°
2026-04-16 04:47 38.28400 116.63002 31071 ft 431 kts 179°
2026-04-16 04:47 38.22548 116.64933 31072 ft 440 kts 171°
2026-04-16 04:48 38.16673 116.67135 31050 ft 440 kts 172°
2026-04-16 04:48 38.10784 116.69314 31054 ft 441 kts 173°
2026-04-16 04:49 38.04889 116.71537 31056 ft 443 kts 172°
2026-04-16 04:49 37.98952 116.73829 31063 ft 443 kts 172°
2026-04-16 04:50 37.93096 116.76076 31065 ft 443 kts 172°
2026-04-16 04:50 37.87190 116.78323 31075 ft 443 kts 172°
2026-04-16 04:51 37.81281 116.80567 31078 ft 443 kts 172°
2026-04-16 04:51 37.75378 116.82811 31079 ft 443 kts 172°
2026-04-16 04:52 37.69477 116.85048 31053 ft 443 kts 173°
2026-04-16 04:52 37.63565 116.87266 31044 ft 443 kts 174°
2026-04-16 04:53 37.57649 116.89484 31057 ft 444 kts 174°
2026-04-16 04:53 37.51721 116.91707 31060 ft 444 kts 174°
2026-04-16 04:54 37.45795 116.93926 31044 ft 445 kts 174°
2026-04-16 04:54 37.40860 116.95770 31055 ft 445 kts 174°